This is the latest recevied weather packets stored in our database for station/object KE4LOJ. If no packets are shown the sender has not sent any weather packets the latest 10 day(s).
| Time | Temp. | Humidity | Pressure | Rain* | Wind** | Luminosity | Snow |
|---|---|---|---|---|---|---|---|
| 1777316136 | 25° C | 75% | 1018 hPa | 0 mm | - | 787 W/m² | - |
| 1777315834 | 25.56° C | 75% | 1018 hPa | 0 mm | - | 837 W/m² | - |
| 1777315533 | 26.11° C | 72% | 1017.9 hPa | 0 mm | - | 816 W/m² | - |
| 1777315230 | 26.67° C | 71% | 1017.9 hPa | 0 mm | - | 862 W/m² | - |
| 1777314926 | 26.11° C | 73% | 1017.7 hPa | 0 mm | - | 716 W/m² | - |
| 1777314622 | 25.56° C | 73% | 1017.8 hPa | 0 mm | - | 914 W/m² | - |
| 1777314320 | 26.11° C | 73% | 1017.5 hPa | 0 mm | - | 538 W/m² | - |
| 1777314017 | 26.67° C | 70% | 1017.9 hPa | 0 mm | - | 377 W/m² | - |
| 1777313714 | 27.22° C | 70% | 1017.6 hPa | 0 mm | - | 359 W/m² | - |
| 1777313411 | 26.67° C | 68% | 1017.8 hPa | 0 mm | - | 947 W/m² | - |
| 1777313108 | 26.67° C | 68% | 1017.7 hPa | 0 mm | - | 917 W/m² | - |
| 1777312803 | 26.67° C | 69% | 1017.9 hPa | 0 mm | - | 939 W/m² | - |
| 1777312501 | 27.22° C | 69% | 1017.7 hPa | 0 mm | - | 331 W/m² | - |
| 1777312198 | 26.67° C | 70% | 1017.9 hPa | 0 mm | - | 927 W/m² | - |
| 1777311895 | 27.22° C | 69% | 1017.8 hPa | 0 mm | - | 878 W/m² | - |
| 1777311592 | 26.67° C | 70% | 1017.6 hPa | 0 mm | - | 835 W/m² | - |
| 1777311289 | 26.67° C | 69% | 1017.5 hPa | 0 mm | - | 888 W/m² | - |
| 1777310987 | 26.67° C | 71% | 1017.6 hPa | 0 mm | - | 777 W/m² | - |
| 1777310685 | 26.67° C | 69% | 1017.5 hPa | 0 mm | - | 328 W/m² | - |
| 1777310382 | 27.22° C | 69% | 1017.5 hPa | 0 mm | - | 306 W/m² | - |
| 1777310078 | 27.78° C | 67% | 1017.6 hPa | 0 mm | - | 919 W/m² | - |
| 1777309777 | 27.22° C | 65% | 1017.5 hPa | 0 mm | - | 892 W/m² | - |
| 1777309474 | 27.22° C | 67% | 1017.5 hPa | 0 mm | - | 867 W/m² | - |
| 1777309171 | 27.22° C | 68% | 1017.6 hPa | 0 mm | - | 904 W/m² | - |
| 1777308870 | 26.67° C | 70% | 1017.7 hPa | 0 mm | - | 687 W/m² | - |
* Rain latest hour (hover to see other rain measurements)
** Current wind speed in m/s (hover to see current wind gust speed)